User: anonymous   Login
Location: Boiro
(42.6475°N, 8.8834°W)
Time: 20:57:49
(UTC+01:00)
Language:

Max Valier Satellite - Orbit

View from above orbital plane
View from above orbital plane
View from above satellite
View from above satellite

Ground track
Ground track

The orbit data is extracted from the following two-line orbital elements,

1 42778U 17036P   22019.50883469  .00005305  00000-0  21678-3 0  9992
2 42778  97.2279  65.8094 0012850 128.7778 231.4610 15.24707863254195
Epoch (UTC): 19 January 2022 12:12:43
Eccentricity: 0.0012850
inclination: 97.2279°
perigee height: 483 km
apogee height: 500 km
right ascension of ascending node: 65.8094°
argument of perigee: 128.7778°
revolutions per day: 15.24707863
mean anomaly at epoch: 231.4610°
orbit number at epoch: 25419

The dashed part of the orbit path shows where the satellite is in the earth's shadow,  

DLR